Location: Topeka
(39.0480°N, 95.6780°W)
Time: 05:26:42
(UTC-06:00)

ISS - Visible Passes

Search period start: 24 November 2017 00:00
Search period end: 04 December 2017 00:00
Orbit: 402 x 407 km, 51.6° (Epoch: 24 November)

Date Brightness Start Highest point End Pass type
(mag) Time Alt. Az. Time Alt. Az. Time Alt. Az.
24 Nov -1.0 19:14:51 10° SSW 19:15:22 14° SSW 19:15:22 14° SSW visible
25 Nov -2.1 18:23:17 10° S 18:25:37 20° SE 18:25:37 20° SE visible
26 Nov -1.4 17:33:21 10° SE 17:33:39 10° SE 17:33:57 10° ESE visible
26 Nov -2.3 19:06:24 10° SW 19:08:27 36° WSW 19:08:27 36° WSW visible
27 Nov -3.5 18:14:10 10° SW 18:17:21 51° SE 18:18:31 32° E visible
28 Nov -2.3 18:58:29 10° W 19:01:09 32° NW 19:01:09 32° NW visible
29 Nov -3.5 18:05:48 10° WSW 18:09:02 60° NW 18:11:02 21° NE visible
30 Nov -1.7 18:50:58 10° WNW 18:53:25 19° NNW 18:53:31 19° NNW visible
01 Dec -2.3 17:57:56 10° W 18:00:50 28° NNW 18:03:16 13° NNE visible
02 Dec -1.3 18:43:50 10° NW 18:45:25 13° NNW 18:45:37 13° NNW visible
03 Dec -1.6 17:50:28 10° WNW 17:52:43 17° NNW 17:54:58 10° NNE visible
